Flag for Norway Weather past 2 weeks in Hammerfest, Norway

Now
54 °F

Partly sunny.


Feels Like: 48 °F
Forecast: 49 / 54 °F
Wind: 20 mph from Southwest

Location: Hammerfest

Current Time: Jul 24, 2014 at 10:43:08 PM

Latest Report: Jul 24, 2014 at 9:50 PM


Visibility: N/A

Pressure: 30.12 "Hg

Humidity: 88%

Dew point: 50 °F

Location of HammerfestLocation

Historic Weather in Hammerfest — Graph

°F

Hammerfest temperature yesterday

Maximum temperature yesterday: 61 °F (at 12:50 PM)
Minimum temperature yesterday: 50 °F (at 1:50 AM)
Average temperature yesterday: 54 °F

Past Weeks' High & Low Weather Summary

 TemperatureHumidityPressure
High82 °F (Jul 10, 3:50 PM)100% (Jul 17, 7:50 PM)30.30 "Hg (Jul 17, 7:50 PM)
Low46 °F (Jul 12, 11:50 PM)37% (Jul 10, 3:50 PM)29.83 "Hg (Jul 15, 3:50 PM)
Average57 °F80%30.10 "Hg
* Reported Jul 9 8:50 PM — Jul 24 8:50 PM, Hammerfest, Weather by CustomWeather, © 2014

Note: Actual official high and low records may vary slightly from our data, if they occured in-between our weather recording intervals... More about our weather records

Advertising

Hammerfest weather history for previous 24 hours

 ConditionsComfort  
Time TempWeatherWind HumidityBarometerVisibility
8:50 PM
Jul 24
54 °FPartly sunny.21 mph94%30.12 "HgN/A
7:50 PM55 °FBroken clouds.21 mph88%30.15 "HgN/A
6:50 PM54 °FPartly sunny.21 mph94%30.15 "HgN/A
5:50 PM54 °FSprinkles. Mostly cloudy.18 mph94%30.15 "Hg6 mi
4:50 PM55 °FPartly sunny.18 mph88%30.15 "HgN/A
3:50 PM55 °FBroken clouds.17 mph82%30.15 "HgN/A
2:50 PM55 °FBroken clouds.17 mph88%30.15 "HgN/A
1:50 PM55 °FPartly sunny.17 mph88%30.15 "HgN/A
12:50 PM57 °FBroken clouds.16 mph82%30.15 "HgN/A
11:50 AM55 °FBroken clouds.16 mph88%30.15 "HgN/A
10:50 AM55 °FScattered clouds.14 mph82%30.15 "HgN/A
9:50 AM57 °FScattered clouds.13 mph77%30.15 "HgN/A
8:50 AM57 °FScattered clouds.15 mph82%30.15 "HgN/A
7:50 AM59 °FScattered clouds.15 mph82%30.15 "HgN/A
6:50 AM55 °FScattered clouds.12 mph94%30.15 "HgN/A
5:50 AM55 °FBroken clouds.7 mph94%30.15 "HgN/A
3:50 AM55 °FBroken clouds.10 mph100%30.18 "HgN/A
2:50 AM54 °FPartly sunny.6 mph100%30.18 "HgN/A
1:50 AM55 °FPartly sunny.7 mph94%30.18 "HgN/A
12:50 AM54 °FBroken clouds.6 mph94%30.21 "HgN/A
11:50 PM
Jul 23
54 °FBroken clouds.8 mph94%30.21 "HgN/A
10:50 PM52 °FBroken clouds.5 mph100%30.21 "HgN/A
Weather by CustomWeather, © 2014

See weather overviewHow to use our weather pages